Powrót do katalogu

STARLINK-36733

AktywnyŁącznośćSSO
NORAD 67811·PAYLOAD·🇺🇸 United States

Wystrzelony Feb 15, 2026 z Vandenberg Space Force Base

Loading…

Następne Przeloty (najbliższe 24 godziny)

TLE

ŚwieżeSource: CelesTrak SupGP

Epoka: Sep 14, 2026, 23:02 UTC

1 67811C 26032Q   26257.96020833  .00069024  00000+0  21430-2 0  2578
2 67811  97.2855  84.4921 0001604  92.4121 111.6164 15.33398911    13

Śledź STARLINK-36733 w czasie rzeczywistym z AllMySat

Download on the App Store